Flag for Germany Weather past 2 weeks in Heidelberg, Baden-Württemberg, Germany

Now
55 °F

Overcast.


Feels Like: 54 °F
Forecast: 47 / 63 °F
Wind: 7 mph from South

Location: Baden Wurttemberg - Neuostheim

Current Time: Sep 5, 2015 at 10:42:11 AM

Latest Report: Sep 5, 2015 at 9:50 AM


Visibility: N/A

Pressure: 30.04 "Hg

Humidity: 72%

Dew point: 46 °F

Location of HeidelbergLocation

Historic Weather in Heidelberg — Graph

°F

Heidelberg temperature yesterday

Maximum temperature yesterday: 68 °F (at 1:20 PM)
Minimum temperature yesterday: 50 °F (at 6:20 AM)
Average temperature yesterday: 61 °F

Past Weeks' High & Low Weather Summary

 TemperatureHumidityPressure
High93 °F (Aug 30, 4:50 PM)100% (Aug 28, 7:50 AM)30.27 "Hg (Aug 28, 7:50 AM)
Low48 °F (Sep 5, 7:20 AM)21% (Aug 31, 4:20 PM)29.68 "Hg (Aug 23, 4:50 PM)
Average72 °F56%29.97 "Hg
* Reported Aug 21 9:20 AM — Sep 5 9:20 AM, Heidelberg, Weather by CustomWeather, © 2015

Note: Actual official high and low records may vary slightly from our data, if they occured in-between our weather recording intervals... More about our weather records

Advertising

Heidelberg weather history for previous 24 hours

 ConditionsComfort  
Time TempWeatherWind HumidityBarometerVisibility
9:20 AM
Sat, Sep 5
54 °FLight rain. Overcast.7 mph77%30.04 "HgN/A
8:50 AM54 °FPartly sunny.5 mph72%30.04 "HgN/A
8:20 AM52 °FScattered clouds.3 mph82%30.04 "HgN/A
7:50 AM50 °FSunny.3 mph88%30.04 "Hg10 mi
7:20 AM48 °FClear.5 mph87%30.04 "Hg10 mi
8:50 PM
Fri, Sep 4
61 °FSunny.7 mph48%29.98 "Hg10 mi
8:20 PM63 °FSunny.9 mph49%29.98 "Hg10 mi
7:50 PM64 °FSunny.12 mph43%29.98 "Hg10 mi
7:20 PM64 °FPassing clouds.9 mph43%29.98 "HgN/A
6:50 PM66 °FPassing clouds.9 mph37%29.98 "HgN/A
6:20 PM66 °FPassing clouds.7 mph37%29.98 "HgN/A
5:50 PM66 °FPassing clouds.8 mph37%29.98 "HgN/A
5:20 PM68 °FPassing clouds.10 mph30%29.98 "HgN/A
4:50 PM66 °FPassing clouds.10 mph35%29.98 "HgN/A
4:20 PM66 °FSunny.13 mph35%29.98 "Hg10 mi
3:50 PM66 °FSunny.12 mph35%30.01 "Hg10 mi
3:20 PM66 °FPassing clouds.14 mph32%30.01 "HgN/A
2:50 PM66 °FPassing clouds.14 mph35%30.01 "HgN/A
2:20 PM66 °FPassing clouds.13 mph35%30.01 "HgN/A
1:50 PM66 °FPassing clouds.7 mph35%30.01 "HgN/A
1:20 PM68 °FPassing clouds.8 mph38%30.01 "HgN/A
12:50 PM64 °FPassing clouds.7 mph40%30.01 "HgN/A
12:20 PM64 °FSunny.5 mph40%30.04 "Hg10 mi
11:50 AM63 °FPassing clouds.7 mph45%30.04 "HgN/A
11:20 AM61 °FPassing clouds.5 mph55%30.04 "HgN/A
10:50 AM61 °FPassing clouds.6 mph59%30.04 "HgN/A
10:20 AM59 °FPassing clouds.5 mph63%30.04 "HgN/A
Weather by CustomWeather, © 2015

See weather overviewHow to use our weather pages